Location: Indian Hills
(32.9760°N, 85.9450°W)
Time: 14:50:51
(UTC+00:00)

ISS - Pass Details

Date: 11 March 2021
Orbit: 418 x 422 km, 51.6° (Epoch: 13 April)

Event Time Altitude Azimuth Distance (km) Brightness Sun altitude
Exits shadow 10:13:10 13° 2° (N) 1,315 -1.1 -22.9°
Maximum altitude 10:14:39 17° 33° (NNE) 1,156 -1.0 -22.6°
Drops below altitude 10° 10:16:54 10° 75° (ENE) 1,492 0.2 -22.2°
Sets 10:19:32 0° 97° (E) 2,353 1.3 -21.6°
